Marshfield, MA

10:13 PM EST on November 17, 2019 (GMT -0500)
Marshfield

Weather History for KGHG - October, 2019

Change the Weather History Date:

Thursday, October 17, 2019

  Actual Average (WUND) Record (WUND)
Temperature  
Mean Temperature 55 °F -  
Max Temperature 59 °F - - (-1)
Min Temperature 51 °F - - (-1)
Degree Days  
Heating Degree Days 10    
Growing Degree Days 5 (Base 50)    
Moisture  
Dew Point 45 °F    
Average Humidity 71    
Maximum Humidity 100    
Minimum Humidity 58    
Precipitation  
Precipitation 1.85 in - - ()
Sea Level Pressure  
Sea Level Pressure 29.20 in    
Wind  
Wind Speed 18 mph (WSW)    
Max Wind Speed 31 mph    
Max Gust Speed 54 mph    
Visibility 8 miles    
Events Rain    
Averages and records for this station are not official NWS values.
T = Trace of Precipitation, MM = Missing Value Source: NWS Daily Summary

Daily Weather History Graph

Daily Weather History Graph

Search for Another Location

Airport or City:

Astronomy

Oct. 17, 2019 Rise Set
Actual Time 6:57 AM EDT 5:58 PM EDT
Civil Twilight 6:28 AM EDT 6:26 PM EDT
Nautical Twilight 5:56 AM EDT 6:58 PM EDT
Astronomical Twilight 5:24 AM EDT 7:31 PM EDT
Moon 8:24 PM EDT (10/17) 10:28 AM EDT (10/17)
Length of Visible Light 11h 57m
Length of Day
11h 00m
Waning Gibbous, 87% of the Moon is Illuminated
Oct 17
Waning Gibbous
Oct 21
Last Quarter
Oct 27
New
Nov 4
First Quarter
Nov 12
Full

Hourly Weather History & Observations

Time (EDT) Temp. Dew Point Humidity Pressure Visibility Wind Dir Wind Speed Gust Speed Precip Events Conditions
12:15 AM 59.0 °F 59.0 °F 100% 29.30 in 1.0 mi East 21.9 mph 42.6 mph N/A Rain Heavy Rain
12:35 AM 59.0 °F 59.0 °F 100% 29.25 in 1.2 mi East 18.4 mph 32.2 mph N/A Rain Rain
12:55 AM 59.0 °F 59.0 °F 100% 29.18 in 1.2 mi East 29.9 mph 40.3 mph 0.44 in Rain Heavy Rain
1:15 AM 59.0 °F 59.0 °F 100% 29.11 in 1.2 mi East 25.3 mph 44.9 mph N/A Rain Heavy Rain
1:35 AM 59.0 °F 59.0 °F 100% 29.04 in 0.5 mi East 29.9 mph 48.3 mph N/A Rain Heavy Rain
1:55 AM 59.0 °F 59.0 °F 100% 28.95 in 0.5 mi East 31.1 mph 54.1 mph 0.46 in Rain Heavy Rain
2:15 AM - - N/A% - - North - - N/A   Unknown
2:35 AM - - N/A% - - North - - N/A   Unknown
2:55 AM - - N/A% - - North - - N/A   Unknown
3:15 AM - - N/A% - - North - - N/A   Unknown
3:35 AM - - N/A% - - North - - N/A   Unknown
3:55 AM - - N/A% - - North - - N/A   Unknown
4:15 AM - - N/A% - - North - - N/A   Unknown
4:35 AM - - N/A% - - North - - N/A   Unknown
4:55 AM - - N/A% - - North - - N/A   Unknown
5:15 AM - - N/A% - - North - - N/A   Unknown
5:35 AM - - N/A% - - North - - N/A   Unknown
5:55 AM - - N/A% - - North - - N/A   Unknown
6:15 AM - - N/A% - - North - - N/A   Unknown
6:35 AM - - N/A% - - North - - N/A   Unknown
6:55 AM - - N/A% - - North - - N/A   Unknown
7:15 AM - - N/A% - - North - - N/A   Unknown
7:35 AM - - N/A% - - North - - N/A   Unknown
7:55 AM - - N/A% - - North - - N/A   Unknown
8:15 AM - - N/A% - - North - - N/A   Unknown
8:35 AM - - N/A% - - North - - N/A   Unknown
8:55 AM - - N/A% - - North - - N/A   Unknown
9:15 AM - - N/A% - - North - - N/A   Unknown
9:35 AM - - N/A% - - North - - N/A   Unknown
9:55 AM - - N/A% - - North - - N/A   Unknown
10:15 AM - - N/A% - - North - - N/A   Unknown
10:35 AM - - N/A% - - North - - N/A   Unknown
10:55 AM - - N/A% - - North - - N/A   Unknown
11:15 AM - - N/A% - - North - - N/A   Unknown
11:35 AM - - N/A% - - North - - N/A   Unknown
11:55 AM - - N/A% - - North - - N/A   Unknown
12:15 PM - - N/A% - - North - - N/A   Unknown
12:35 PM - - N/A% - - North - - N/A   Unknown
12:55 PM - - N/A% - - North - - N/A   Unknown
1:15 PM - - N/A% - - North - - N/A   Unknown
1:35 PM - - N/A% - - North - - N/A   Unknown
1:55 PM - - N/A% - - North - - N/A   Unknown
2:15 PM - - N/A% - - North - - N/A   Unknown
2:35 PM 55.4 °F 42.8 °F 63% 29.05 in 10.0 mi WSW 16.1 mph 38.0 mph N/A   Unknown
2:55 PM 55.4 °F 42.8 °F 63% 29.06 in 10.0 mi WSW 23.0 mph 38.0 mph 0.95 in   Overcast
3:15 PM 55.4 °F 42.8 °F 63% 29.07 in 10.0 mi WSW 19.6 mph 33.4 mph N/A   Overcast
3:35 PM 55.4 °F 42.8 °F 63% 29.07 in 10.0 mi WSW 18.4 mph 28.8 mph N/A   Overcast
3:55 PM 55.4 °F 42.8 °F 63% 29.08 in 10.0 mi WSW 12.7 mph 32.2 mph N/A   Mostly Cloudy
4:15 PM 55.4 °F 41.0 °F 58% 29.09 in 10.0 mi WSW 11.5 mph 25.3 mph N/A   Scattered Clouds
4:35 PM 55.4 °F 42.8 °F 63% 29.11 in 10.0 mi North - - N/A   Mostly Cloudy
4:55 PM 55.4 °F 41.0 °F 58% 29.12 in 10.0 mi West 18.4 mph 28.8 mph N/A   Mostly Cloudy
5:15 PM 55.4 °F 41.0 °F 58% 29.12 in 10.0 mi WSW 16.1 mph 34.5 mph N/A   Mostly Cloudy
5:35 PM 53.6 °F 41.0 °F 62% 29.15 in 10.0 mi West 12.7 mph 32.2 mph N/A   Scattered Clouds
5:55 PM 53.6 °F 41.0 °F 62% 29.16 in 10.0 mi West 9.2 mph 25.3 mph N/A   Scattered Clouds
6:15 PM 53.6 °F 41.0 °F 62% 29.17 in 10.0 mi West 12.7 mph 26.5 mph N/A   Mostly Cloudy
6:35 PM 53.6 °F 41.0 °F 62% 29.19 in 10.0 mi West 11.5 mph 25.3 mph N/A   Mostly Cloudy
6:55 PM 53.6 °F 42.8 °F 67% 29.20 in 10.0 mi West 15.0 mph 27.6 mph N/A   Scattered Clouds
7:15 PM 53.6 °F 42.8 °F 67% 29.21 in 10.0 mi West 13.8 mph 29.9 mph N/A   Clear
7:35 PM 53.6 °F 42.8 °F 67% 29.23 in 10.0 mi West 12.7 mph 23.0 mph N/A   Clear
7:55 PM 53.6 °F 42.8 °F 67% 29.24 in 10.0 mi West 10.4 mph 26.5 mph N/A   Mostly Cloudy
8:15 PM 53.6 °F 42.8 °F 67% 29.26 in 10.0 mi West 9.2 mph 21.9 mph N/A   Overcast
8:35 PM 51.8 °F 41.0 °F 67% 29.27 in 10.0 mi West 8.1 mph 18.4 mph N/A   Scattered Clouds
8:55 PM 51.8 °F 41.0 °F 67% 29.28 in 10.0 mi Variable 6.9 mph 19.6 mph N/A   Scattered Clouds
9:15 PM 51.8 °F 41.0 °F 67% 29.30 in 10.0 mi West 9.2 mph 21.9 mph N/A   Partly Cloudy
9:35 PM 51.8 °F 41.0 °F 67% 29.31 in 10.0 mi West 11.5 mph 19.6 mph N/A   Clear
9:55 PM 51.8 °F 39.2 °F 62% 29.32 in 10.0 mi West 10.4 mph 17.3 mph N/A   Clear
10:15 PM 51.8 °F 41.0 °F 67% 29.34 in 10.0 mi West 10.4 mph 18.4 mph N/A   Clear
10:35 PM 51.8 °F 41.0 °F 67% 29.36 in 10.0 mi WSW 9.2 mph 17.3 mph N/A   Scattered Clouds
10:55 PM 51.8 °F 41.0 °F 67% 29.36 in 10.0 mi Variable 6.9 mph - N/A   Mostly Cloudy
11:15 PM 51.8 °F 41.0 °F 67% 29.37 in 10.0 mi West 5.8 mph 13.8 mph N/A   Scattered Clouds
11:35 PM 51.8 °F 42.8 °F 71% 29.38 in 10.0 mi Variable 6.9 mph - N/A   Mostly Cloudy
11:55 PM 51.8 °F 42.8 °F 71% 29.40 in 10.0 mi WSW 8.1 mph 13.8 mph N/A   Scattered Clouds